Location: Newark
(46.7636°N, 1.8358°W)
Time: 13:12:41
(UTC+00:00)

Transit 4A - All Passes

Search period start: 17 October 2019 00:00
Search period end: 27 October 2019 00:00
Orbit: 866 x 978 km, 66.8° (Epoch: 16 October)

Date Brightness Start Highest point End Pass type
(mag) Time Alt. Az. Time Alt. Az. Time Alt. Az.
17 Oct - 03:40:17 10° ESE 03:41:19 10° E 03:42:22 10° E visible
17 Oct - 05:20:15 10° SSW 05:26:29 61° ESE 05:32:38 10° NE visible
17 Oct - 07:07:34 10° WSW 07:13:15 33° NW 07:18:50 10° NNE daylight
17 Oct - 08:58:43 10° NW 09:01:39 13° NNW 09:04:34 10° NNE daylight
17 Oct - 10:48:40 10° N 10:50:59 12° NNE 10:53:17 10° NE daylight
17 Oct - 12:34:31 10° NNW 12:39:39 27° NE 12:44:38 10° E daylight
17 Oct - 14:20:37 10° NW 14:26:37 75° WSW 14:32:27 10° SSE daylight
17 Oct - 16:09:30 10° WNW 16:11:53 13° W 16:14:14 10° SW daylight
18 Oct - 03:46:32 10° SE 03:50:17 16° ESE 03:54:00 10° ENE visible
18 Oct - 05:29:25 10° SSW 05:35:48 85° ESE 05:42:03 10° NE visible
18 Oct - 07:17:41 10° W 07:22:54 26° NW 07:28:03 10° NNE daylight
18 Oct - 09:09:20 10° NNW 09:11:37 12° N 09:13:52 10° N daylight
18 Oct - 10:57:59 10° NNW 11:00:56 14° NNE 11:03:51 10° NE daylight
18 Oct - 12:43:45 10° NNW 12:49:16 35° NE 12:54:38 10° ESE daylight
18 Oct - 14:30:04 10° NW 14:35:53 52° WSW 14:41:31 10° S daylight
19 Oct - 03:54:24 10° SSE 03:59:19 24° ESE 04:04:11 10° NE visible
19 Oct - 05:38:49 10° SW 05:45:10 71° NW 05:51:24 10° NNE visible
19 Oct - 07:27:59 10° W 07:32:38 21° NNW 07:37:14 10° NNE daylight
19 Oct - 09:19:51 10° NNW 09:21:37 11° N 09:23:21 10° NNE daylight
19 Oct - 11:07:14 10° NNW 11:10:51 16° NNE 11:14:24 10° ENE daylight
19 Oct - 12:53:00 10° NNW 12:58:50 47° NE 13:04:27 10° ESE daylight
19 Oct - 14:39:39 10° NW 14:45:03 36° WSW 14:50:18 10° S daylight
20 Oct - 04:02:48 10° S 04:08:26 35° ESE 04:13:59 10° NE visible
20 Oct - 05:48:26 10° SW 05:54:37 52° NW 06:00:41 10° NNE visible
20 Oct - 07:38:25 10° WNW 07:42:27 17° NNW 07:46:27 10° NNE daylight
20 Oct - 09:30:00 10° NNW 09:31:37 11° N 09:33:14 10° NNE daylight
20 Oct - 11:16:27 10° NNW 11:20:41 19° NNE 11:24:50 10° ENE daylight
20 Oct - 13:02:17 10° NNW 13:08:18 64° NE 13:14:06 10° SE daylight
20 Oct - 14:49:26 10° NW 14:54:09 25° WSW 14:58:46 10° SSW daylight
21 Oct - 04:11:33 10° S 04:17:37 49° ESE 04:23:35 10° NE visible
21 Oct - 05:58:15 10° WSW 06:04:08 39° NW 06:09:57 10° NNE visible
21 Oct - 07:48:59 10° NW 07:52:20 15° NNW 07:55:39 10° NNE daylight
21 Oct - 09:39:42 10° N 09:41:38 11° N 09:43:32 10° NNE daylight
21 Oct - 11:25:39 10° NNW 11:30:27 23° NE 11:35:08 10° E daylight
21 Oct - 13:11:38 10° NNW 13:17:40 88° NE 13:23:32 10° SSE daylight
21 Oct - 14:59:35 10° WNW 15:03:10 17° WSW 15:06:42 10° SW daylight
22 Oct - 02:39:07 10° SE 02:41:34 12° E 02:44:00 10° ENE visible
22 Oct - 04:20:34 10° SSW 04:26:52 69° ESE 04:33:04 10° NE visible
22 Oct - 06:08:15 10° W 06:13:45 30° NW 06:19:09 10° NNE daylight
22 Oct - 07:59:36 10° NW 08:02:16 13° NNW 08:04:53 10° N daylight
22 Oct - 09:49:06 10° N 09:51:36 12° NNE 09:54:05 10° NE daylight
22 Oct - 11:34:52 10° NNW 11:40:08 30° NE 11:45:15 10° E daylight
22 Oct - 13:21:01 10° NW 13:26:59 66° WSW 13:32:45 10° SSE daylight
22 Oct - 15:11:09 10° W 15:12:07 10° W 15:13:05 10° WSW daylight
23 Oct - 02:46:19 10° SSE 02:50:33 19° ESE 02:54:45 10° ENE visible
23 Oct - 04:29:49 10° SSW 04:36:11 86° WNW 04:42:27 10° NNE visible
23 Oct - 06:18:25 10° W 06:23:26 24° NW 06:28:22 10° NNE daylight
23 Oct - 08:10:13 10° NNW 08:12:14 12° N 08:14:14 10° N daylight
23 Oct - 09:58:22 10° NNW 10:01:32 14° NNE 10:04:39 10° NE daylight
23 Oct - 11:44:06 10° NNW 11:49:44 39° NE 11:55:12 10° ESE daylight
23 Oct - 13:30:32 10° NW 13:36:12 46° WSW 13:41:43 10° S daylight
24 Oct - 02:54:24 10° SSE 02:59:37 27° ESE 03:04:46 10° NE visible
24 Oct - 04:39:18 10° SW 04:45:35 64° NW 04:51:46 10° NNE visible
24 Oct - 06:28:46 10° WNW 06:33:11 20° NNW 06:37:33 10° NNE daylight
24 Oct - 08:20:38 10° NNW 08:22:14 11° N 08:23:50 10° NNE daylight
24 Oct - 10:07:36 10° NNW 10:11:25 17° NNE 10:15:10 10° ENE daylight
24 Oct - 11:53:22 10° NNW 11:59:15 52° NE 12:04:58 10° SE daylight
24 Oct - 13:40:11 10° NW 13:45:21 31° WSW 13:50:24 10° S daylight
25 Oct - 03:02:57 10° S 03:08:45 39° ESE 03:14:28 10° NE visible
25 Oct - 04:48:59 10° WSW 04:55:04 47° NW 05:01:02 10° NNE visible
25 Oct - 06:39:15 10° WNW 06:43:01 16° NNW 06:46:45 10° NNE daylight
25 Oct - 08:30:36 10° NNW 08:32:15 11° N 08:33:52 10° NNE daylight
25 Oct - 10:16:48 10° NNW 10:21:13 20° NNE 10:25:33 10° ENE daylight
25 Oct - 12:02:40 10° NNW 12:08:42 72° NE 12:14:31 10° SE daylight
25 Oct - 13:50:04 10° WNW 13:54:24 21° WSW 13:58:41 10° SSW daylight
26 Oct - 03:11:48 10° SSW 03:17:57 56° ESE 03:24:02 10° NE visible
26 Oct - 04:58:52 10° WSW 05:04:37 36° NW 05:10:16 10° NNE visible
26 Oct - 06:49:51 10° NW 06:52:55 14° NNW 06:55:58 10° NNE daylight
26 Oct - 08:40:10 10° N 08:42:15 12° N 08:44:18 10° NNE daylight
26 Oct - 10:26:00 10° NNW 10:30:58 25° NE 10:35:47 10° E daylight
26 Oct - 12:12:02 10° NW 12:18:03 82° WSW 12:23:53 10° SSE daylight
26 Oct - 14:00:28 10° WNW 14:03:24 14° WSW 14:06:20 10° SW daylight
